Metropolis, IL

1:23 PM CST on November 21, 2019 (GMT -0600)
Metropolis

Weather History for KM30 - August, 2019

Change the Weather History Date:

Thursday, August 22, 2019

  Actual Average (KPAH) Record (KPAH)
Temperature  
Mean Temperature 75 °F -  
Max Temperature 81 °F 87 °F 101 °F (1987)
Min Temperature 70 °F 65 °F 50 °F (1956)
Cooling Degree Days 10    
Growing Degree Days 25 (Base 50)    
Moisture  
Dew Point 70 °F    
Average Humidity 92    
Maximum Humidity 98    
Minimum Humidity 75    
Precipitation  
Precipitation 1.06 in - - ()
Sea Level Pressure  
Sea Level Pressure 30.00 in    
Wind  
Wind Speed 3 mph (East)    
Max Wind Speed 15 mph    
Max Gust Speed 20 mph    
Visibility 7 miles    
Events Rain , Thunderstorm    
Averages and records for this station are not official NWS values.
T = Trace of Precipitation, MM = Missing Value Source: NWS Daily Summary

Daily Weather History Graph

Daily Weather History Graph

Search for Another Location

Airport or City:

Astronomy

Aug. 22, 2019 Rise Set
Actual Time 6:17 AM CDT 7:38 PM CDT
Civil Twilight 5:49 AM CDT 8:05 PM CDT
Nautical Twilight 5:17 AM CDT 8:37 PM CDT
Astronomical Twilight 4:43 AM CDT 9:11 PM CDT
Moon 11:37 PM CDT (8/22) 12:43 PM CDT (8/22)
Length of Visible Light 14h 15m
Length of Day
13h 20m
Waning Gibbous, 59% of the Moon is Illuminated
Aug 22
Waning Gibbous
Aug 23
Last Quarter
Aug 30
New
Sep 5
First Quarter
Sep 13
Full

Hourly Weather History & Observations

Time (CDT) Temp. Heat Index Dew Point Humidity Pressure Visibility Wind Dir Wind Speed Gust Speed Precip Events Conditions
12:15 AM 73.9 °F - 68.5 °F 83% 29.98 in 10.0 mi Calm Calm - N/A   Clear
12:35 AM 73.9 °F - 67.6 °F 81% 30.00 in 10.0 mi NNW 8.1 mph - N/A   Scattered Clouds
12:55 AM 73.6 °F - 67.8 °F 82% 30.00 in 10.0 mi NW 5.8 mph - N/A   Clear
1:15 AM 73.6 °F - 68.0 °F 83% 30.01 in 10.0 mi NNW 5.8 mph - N/A   Clear
1:35 AM 73.0 °F - 68.0 °F 84% 30.00 in 10.0 mi North 5.8 mph - N/A   Clear
1:55 AM 73.4 °F - 68.4 °F 84% 30.01 in 10.0 mi Calm Calm - N/A   Scattered Clouds
2:15 AM 72.9 °F - 68.5 °F 86% 30.00 in 10.0 mi Calm Calm - N/A   Mostly Cloudy
2:35 AM 72.5 °F - 69.8 °F 91% 30.00 in 10.0 mi Calm Calm - N/A   Scattered Clouds
2:55 AM 72.1 °F - 70.0 °F 93% 30.00 in 10.0 mi Calm Calm - N/A   Clear
3:15 AM 71.8 °F - 69.4 °F 92% 30.00 in 10.0 mi Calm Calm - N/A   Clear
3:35 AM 71.8 °F - 69.4 °F 92% 29.99 in 10.0 mi Calm Calm - N/A   Clear
3:55 AM 71.6 °F - 69.4 °F 93% 29.99 in 10.0 mi Calm Calm - N/A   Clear
4:15 AM 71.6 °F - 69.3 °F 92% 29.99 in 7.0 mi Calm Calm - N/A   Mostly Cloudy
4:35 AM 72.3 °F - 68.7 °F 88% 30.00 in 7.0 mi Calm Calm - N/A   Mostly Cloudy
4:55 AM 72.0 °F - 69.6 °F 92% 29.99 in 7.0 mi Calm Calm - N/A   Scattered Clouds
5:15 AM 71.6 °F - 69.6 °F 93% 29.99 in 7.0 mi Calm Calm - N/A Thunderstorm Scattered Clouds
5:35 AM 72.0 °F - 69.4 °F 92% 29.99 in 7.0 mi Calm Calm - N/A Thunderstorm Overcast
5:55 AM 71.8 °F - 68.7 °F 90% 30.00 in 5.0 mi Calm Calm - N/A Thunderstorm Mostly Cloudy
6:15 AM 71.8 °F - 69.1 °F 91% 30.00 in 7.0 mi Calm Calm - N/A   Mostly Cloudy
6:35 AM 72.1 °F - 69.4 °F 91% 30.01 in 4.0 mi North 4.6 mph - N/A   Overcast
6:55 AM 72.5 °F - 69.8 °F 91% 30.05 in 7.0 mi NW 6.9 mph - N/A Rain , Thunderstorm Light Thunderstorms and Rain
7:15 AM 72.3 °F - 69.8 °F 92% 30.04 in 4.0 mi NE 3.5 mph - 0.02 in Rain , Thunderstorm Heavy Thunderstorms and Rain
7:35 AM 71.8 °F - 70.0 °F 94% 30.04 in 10.0 mi Calm Calm - 0.06 in Rain , Thunderstorm Rain
7:55 AM 71.6 °F - 70.2 °F 95% 30.04 in 4.0 mi East 5.8 mph - 0.13 in Rain , Thunderstorm Thunderstorms and Rain
8:15 AM 71.6 °F - 70.2 °F 95% 30.03 in 10.0 mi ESE 4.6 mph - 0.01 in Rain , Thunderstorm Light Thunderstorms and Rain
8:35 AM 71.6 °F - 70.2 °F 95% 30.01 in 10.0 mi East 4.6 mph - 0.03 in Rain Rain
8:55 AM 71.8 °F - 70.3 °F 95% 30.01 in 7.0 mi ESE 3.5 mph - 0.06 in Rain , Thunderstorm Rain
9:15 AM 72.1 °F - 70.9 °F 96% 30.01 in 5.0 mi ESE 4.6 mph - N/A Rain Rain
9:35 AM 73.8 °F - 72.0 °F 94% 30.01 in 5.0 mi East 3.5 mph - N/A Rain Rain
9:55 AM 74.5 °F - 70.5 °F 87% 30.01 in 5.0 mi ESE 9.2 mph - N/A Rain Rain
10:15 AM 75.4 °F - 71.1 °F 86% 30.01 in 7.0 mi East 3.5 mph - N/A Rain Heavy Rain
10:35 AM 77.5 °F - 72.0 °F 83% 30.03 in 7.0 mi SE 5.8 mph - N/A Rain Heavy Rain
10:55 AM 77.2 °F - 71.1 °F 81% 30.02 in 7.0 mi ESE 8.1 mph - N/A Rain Heavy Rain
11:15 AM 77.7 °F - 71.4 °F 81% 30.02 in 7.0 mi SE 9.2 mph - N/A Rain Rain
11:35 AM 79.5 °F - 72.7 °F 79% 30.01 in 7.0 mi SE 3.5 mph - N/A Rain Heavy Rain
11:55 AM 80.6 °F 84.7 °F 72.1 °F 75% 30.00 in 10.0 mi ESE 4.6 mph - N/A Rain , Thunderstorm Thunderstorms and Rain
12:15 PM 80.6 °F 84.9 °F 72.3 °F 76% 29.99 in 7.0 mi SE 3.5 mph - N/A Rain , Thunderstorm Thunderstorms and Rain
12:35 PM 77.5 °F - 72.0 °F 83% 30.01 in 10.0 mi NNW 15.0 mph 19.6 mph 0.01 in Rain , Thunderstorm Heavy Thunderstorms and Rain
12:55 PM 72.0 °F - 70.3 °F 95% 30.02 in 0.8 mi NE 5.8 mph 16.1 mph 0.61 in Rain , Thunderstorm Heavy Thunderstorms and Rain
1:15 PM 71.2 °F - 69.8 °F 95% 30.02 in 4.0 mi East 5.8 mph - 0.07 in Rain , Thunderstorm Heavy Thunderstorms and Rain
1:35 PM 71.1 °F - 69.8 °F 96% 30.00 in 5.0 mi East 4.6 mph - 0.14 in Rain , Thunderstorm Thunderstorms and Rain
1:55 PM 70.9 °F - 69.8 °F 96% 29.99 in 10.0 mi East 5.8 mph - 0.15 in Rain , Thunderstorm Light Thunderstorms and Rain
2:15 PM 71.1 °F - 70.0 °F 96% 29.99 in 10.0 mi Calm Calm - 0.02 in Rain , Thunderstorm Thunderstorms and Rain
2:35 PM 71.1 °F - 70.0 °F 96% 29.99 in 10.0 mi ESE 3.5 mph - 0.05 in Rain , Thunderstorm Rain
2:55 PM 71.1 °F - 70.0 °F 96% 29.99 in 10.0 mi SE 4.6 mph - 0.08 in Rain , Thunderstorm Thunderstorms and Rain
3:15 PM 71.2 °F - 70.2 °F 96% 29.98 in 10.0 mi SE 5.8 mph - 0.02 in Rain , Thunderstorm Light Thunderstorms and Rain
3:35 PM 71.1 °F - 70.0 °F 96% 29.97 in 10.0 mi SE 6.9 mph - 0.03 in Rain , Thunderstorm Light Thunderstorms and Rain
3:55 PM 71.1 °F - 69.8 °F 96% 29.97 in 10.0 mi SE 4.6 mph - 0.03 in Rain Light Rain
4:15 PM 71.2 °F - 69.8 °F 95% 29.98 in 5.0 mi Calm Calm - N/A Rain Rain
4:55 PM 71.6 °F - 69.6 °F 93% 29.97 in 4.0 mi Calm Calm - N/A   Overcast
5:15 PM 71.6 °F - 69.3 °F 92% 29.96 in 4.0 mi SSW 3.5 mph - N/A   Mostly Cloudy
5:35 PM 72.0 °F - 69.4 °F 92% 29.96 in 4.0 mi Calm Calm - N/A   Scattered Clouds
5:55 PM 72.5 °F - 69.8 °F 91% 29.95 in 4.0 mi Calm Calm - N/A   Clear
6:15 PM 72.5 °F - 70.0 °F 92% 29.96 in 4.0 mi SW 4.6 mph - N/A   Scattered Clouds
6:35 PM 72.3 °F - 70.2 °F 93% 29.95 in 3.0 mi Calm Calm - N/A   Scattered Clouds
7:15 PM 72.0 °F - 70.5 °F 95% 29.96 in 3.0 mi NNW 3.5 mph - N/A   Overcast
7:35 PM 71.6 °F - 70.2 °F 95% 29.97 in 2.5 mi Calm Calm - N/A   Scattered Clouds
7:55 PM 71.6 °F - 70.2 °F 95% 29.97 in 3.0 mi Calm Calm - N/A   Mostly Cloudy
8:15 PM 71.2 °F - 70.2 °F 96% 29.98 in 5.0 mi Calm Calm - N/A   Overcast
8:35 PM 71.2 °F - 70.3 °F 97% 29.98 in 5.0 mi Calm Calm - N/A   Overcast
8:55 PM 70.9 °F - 70.0 °F 97% 29.97 in 5.0 mi Calm Calm - N/A   Overcast
9:15 PM 70.7 °F - 69.8 °F 97% 29.98 in 5.0 mi Calm Calm - N/A   Overcast
9:35 PM 70.7 °F - 69.8 °F 97% 29.97 in 5.0 mi Calm Calm - N/A   Overcast
9:55 PM 70.2 °F - 69.3 °F 97% 29.98 in 5.0 mi Calm Calm - N/A   Scattered Clouds
10:15 PM 70.0 °F - 69.1 °F 97% 29.99 in 5.0 mi Calm Calm - N/A   Scattered Clouds
10:35 PM 70.0 °F - 69.3 °F 98% 29.99 in 5.0 mi Calm Calm - N/A   Scattered Clouds
10:55 PM 70.2 °F - 69.4 °F 98% 30.00 in 5.0 mi Calm Calm - N/A   Scattered Clouds
11:15 PM 70.0 °F - 69.3 °F 98% 30.00 in 5.0 mi Calm Calm - N/A   Scattered Clouds
11:35 PM 70.2 °F - 69.4 °F 98% 30.01 in 4.0 mi Calm Calm - N/A   Mostly Cloudy
11:55 PM 70.3 °F - 69.4 °F 97% 30.01 in 5.0 mi Calm Calm - N/A   Overcast